FW8134 Weather Reports


time (UTC)temp
C
wind
direction
speed
KPH
gust
KPH
rain 1hr
cm
rain 24hr
cm
rain mn
cm
humidity
%
barometer
mb
20260506124518 13 48 8.0 19.3 0.00 2.59 0.48 73 992.1
20260506123519 13 2 6.4 12.9 0.00 2.59 0.48 73 992.1
20260506122520 13 247 3.2 9.7 0.00 2.59 0.48 74 992.1
20260506121516 13 23 4.8 12.9 0.00 2.62 0.48 74 992.1
20260506120517 13 20 8.0 25.7 0.00 2.62 0.48 74 992.1
20260506115518 13 17 6.4 16.1 0.00 2.62 0.48 76 992.1
20260506114519 12 2 4.8 12.9 0.00 2.62 0.48 78 992.2
20260506113520 12 356 6.4 16.1 0.00 2.62 0.48 79 992.2
20260506112516 12 39 8.0 20.9 0.00 2.62 0.48 80 992.3
20260506111517 12 0 6.4 17.7 0.00 2.62 0.48 80 992.3
20260506110518 12 314 4.8 11.3 0.00 2.62 0.48 83 992.3
20260506105539 12 325 4.8 9.7 0.00 2.62 0.48 85 992.3
20260506104520 11 345 4.8 16.1 0.00 2.62 0.48 86 992.3
20260506103556 11 39 4.8 22.5 0.00 2.62 0.48 86 992.3
20260506102537 11 30 6.4 12.9 0.00 2.62 0.48 88 992.4
20260506101518 10 31 4.8 14.5 0.00 2.62 0.48 89 992.4
20260506100539 10 23 6.4 17.7 0.00 2.62 0.48 88 992.3
20260506095519 10 43 1.6 9.7 0.00 2.62 0.48 89 992.2
20260506094515 10 30 4.8 19.3 0.00 2.62 0.48 90 992.2
20260506093516 10 34 3.2 19.3 0.00 2.62 0.48 91 992.1
20260506092517 10 325 3.2 14.5 0.00 2.62 0.48 93 992.1
20260506091519 9 39 4.8 11.3 0.00 2.62 0.48 93 992.0
20260506090519 9 33 6.4 12.9 0.03 2.62 0.48 93 992.0
20260506085515 9 17 3.2 11.3 0.03 2.62 0.48 93 991.9
20260506084516 9 30 6.4 9.7 0.03 2.62 0.48 94 991.9
20260506083537 9 19 6.4 12.9 0.03 2.62 0.48 94 991.8
20260506082518 8 39 6.4 11.3 0.03 2.62 0.48 94 991.6
20260506081540 8 23 6.4 14.5 0.03 2.62 0.48 95 991.5
20260506080520 8 40 4.8 11.3 0.00 2.59 0.46 96 991.4
20260506072519 8 37 4.8 11.3 0.00 2.59 0.46 97 991.1
20260506071521 8 35 4.8 9.7 0.00 2.59 0.46 97 991.0
20260506070516 8 27 4.8 9.7 0.00 2.59 0.46 97 990.9
20260506061516 8 42 4.8 11.3 0.00 2.59 0.46 98 990.6
20260506060517 8 52 4.8 14.5 0.00 2.59 0.46 98 990.5
20260506050538 8 27 4.8 17.7 0.05 2.62 0.46 98 990.0
20260506044520 8 8 3.2 11.3 0.05 2.59 0.43 98 990.0
20260506043517 8 34 4.8 12.9 0.05 2.59 0.43 98 989.9
20260506042517 8 14 3.2 9.7 0.05 2.59 0.43 98 989.9
20260506041519 8 14 4.8 11.3 0.05 2.59 0.43 98 989.9
20260506040520 8 9 3.2 12.9 0.05 2.57 0.41 98 989.9
20260506035515 8 51 3.2 9.7 0.08 2.57 0.41 98 989.9
20260506034517 8 44 1.6 6.4 0.10 2.57 0.41 98 989.9
20260506033517 8 12 4.8 14.5 0.13 2.57 0.41 98 989.9
20260506032539 8 39 3.2 8.0 0.10 2.54 0.38 98 989.9
20260506031640 8 13 1.6 6.4 0.10 2.51 0.36 98 989.9
20260506030536 8 40 1.6 6.4 0.08 2.49 0.33 98 990.0
20260506025517 9 335 3.2 8.0 0.08 2.49 0.33 98 990.0
20260506024518 9 20 3.2 8.0 0.05 2.46 0.30 98 990.1
20260506023519 9 35 1.6 9.7 0.05 2.44 0.28 98 990.1
20260506022515 9 3 3.2 11.3 0.05 2.44 0.28 98 990.0
20260506021516 9 2 3.2 6.4 0.05 2.41 0.25 98 990.0
20260506020518 9 2 1.6 6.4 0.05 2.41 0.25 98 989.9
20260506015559 9 44 1.6 6.4 0.05 2.39 0.23 98 989.9
20260506014540 9 336 1.6 6.4 0.05 2.39 0.23 98 989.9
20260506013516 9 15 3.2 9.7 0.08 2.39 0.23 98 989.9
20260506012517 9 21 1.6 8.0 0.13 2.39 0.23 98 989.8
20260506011519 10 49 1.6 8.0 0.15 2.39 0.23 98 989.9
20260506010520 10 34 3.2 8.0 0.13 2.36 0.20 98 989.8
20260506005516 10 43 3.2 9.7 0.15 2.36 0.20 98 989.8
20260506004537 10 352 3.2 8.0 0.13 2.34 0.18 98 989.8
20260506003518 10 17 4.8 12.9 0.10 2.31 0.15 98 989.9
20260506002519 10 36 3.2 9.7 0.05 2.26 0.10 98 989.9
20260506001520 10 18 1.6 4.8 0.05 2.24 0.08 98 989.9
20260506000516 10 21 4.8 11.3 0.05 2.24 0.08 98 989.9
20260505235517 10 19 3.2 11.3 0.05 2.21 0.05 98 989.9
20260505234538 10 42 3.2 6.4 0.05 2.21 0.05 98 989.9
20260505233519 10 51 4.8 19.3 0.03 2.21 0.05 98 989.9
20260505232515 10 1 6.4 16.1 0.05 2.21 0.05 98 989.9
20260505231556 11 7 4.8 11.3 0.05 2.21 0.05 98 989.9
20260505230518 11 24 1.6 8.0 0.03 2.18 0.03 98 989.8
20260505225518 11 50 1.6 4.8 0.03 2.18 0.03 98 989.8
20260505224520 11 0.0 1.6 0.05 2.18 0.03 98 989.9
20260505223516 11 39 1.6 8.0 0.05 2.18 0.03 98 989.9
20260505222517 11 41 6.4 11.3 0.05 2.16 0.00 98 990.0
20260505221518 11 29 3.2 8.0 0.13 2.16 0.00 98 990.0
20260505220519 11 40 4.8 11.3 0.15 2.16 0.00 98 990.1
20260505215520 11 33 3.2 9.7 0.18 2.16 2.16 98 990.1
20260505214516 11 27 3.2 9.7 0.23 2.13 2.13 98 990.1
20260505213517 11 13 3.2 9.7 0.28 2.13 2.13 98 990.1
20260505212538 11 12 0.0 4.8 0.33 2.11 2.11 99 990.1
20260505211519 11 31 1.6 6.4 0.41 2.03 2.03 98 990.2
20260505210515 11 35 3.2 6.4 0.48 2.03 2.03 98 990.2
20260505205516 11 5 3.2 8.0 0.51 1.98 1.98 98 990.2
20260505204518 11 2 1.6 9.7 0.48 1.93 1.93 98 990.1
20260505203519 11 25 1.6 6.4 0.43 1.85 1.85 98 990.0
20260505202515 11 0.0 0.0 0.33 1.75 1.75 98 990.0
20260505201516 11 287 0.0 3.2 0.23 1.65 1.65 98 989.9
20260505200517 11 353 1.6 4.8 0.15 1.55 1.55 98 989.8
20260505195518 11 41 0.0 3.2 0.10 1.45 1.45 98 989.7
20260505194520 11 245 0.0 6.4 0.13 1.45 1.45 98 989.6
20260505193536 11 304 1.6 4.8 0.18 1.45 1.45 98 989.5
20260505192517 11 338 1.6 6.4 0.18 1.42 1.42 98 989.4
20260505191518 11 345 1.6 4.8 0.20 1.42 1.42 98 989.3
20260505190519 11 320 1.6 6.4 0.18 1.37 1.37 98 989.3
20260505185515 11 356 1.6 4.8 0.18 1.37 1.37 98 989.3
20260505184517 11 0.0 4.8 0.18 1.32 1.32 98 989.2
20260505183518 11 22 0.0 3.2 0.15 1.27 1.27 98 989.1
20260505182519 11 31 1.6 8.0 0.15 1.24 1.24 98 989.0
20260505181515 11 11 1.6 6.4 0.20 1.22 1.22 98 989.0
20260505180517 11 0.0 0.0 0.23 1.19 1.19 98 989.0
20260505175518 11 70 1.6 4.8 0.25 1.19 1.17 98 989.0
20260505174539 11 36 1.6 6.4 0.23 1.17 1.14 98 989.1
20260505173515 11 357 1.6 6.4 0.28 1.14 1.12 98 989.0
20260505172516 11 351 1.6 6.4 0.28 1.09 1.09 98 989.1
20260505171517 11 21 3.2 8.0 0.23 1.04 1.02 98 989.1
20260505170518 11 9 3.2 9.7 0.20 0.99 0.97 98 989.1
20260505165520 11 47 4.8 8.0 0.15 0.94 0.91 98 989.1
20260505164541 11 29 3.2 9.7 0.15 0.91 0.89 98 989.1
20260505163541 11 12 3.2 8.0 0.13 0.86 0.84 98 989.1
20260505162517 11 46 3.2 6.4 0.15 0.81 0.79 98 989.1
20260505161519 11 34 4.8 11.3 0.15 0.79 0.79 98 989.1
20260505160520 11 10 3.2 9.7 0.20 0.79 0.76 98 989.1
20260505152519 11 39 4.8 9.7 0.28 0.69 0.66 98 989.1
20260505151600 11 15 3.2 14.5 0.28 0.64 0.61 98 989.2
20260505150516 11 39 3.2 9.7 0.25 0.58 0.56 97 989.2
20260505140517 12 33 4.8 9.7 0.23 0.33 0.30 97 989.0